This is the latest recevied weather packets stored in our database for station/object KN4DS-3. If no packets are shown the sender has not sent any weather packets the latest 10 day(s).
| Time | Temp. | Humidity | Pressure | Rain* | Wind** | Luminosity | Snow |
|---|---|---|---|---|---|---|---|
| 1777912505 | 23.89° C | 33% | 1018 hPa | 0 mm | - | - | - |
| 1777912204 | 23.33° C | 35% | 1018.1 hPa | 0 mm | - | - | - |
| 1777911904 | 23.33° C | 33% | 1018.2 hPa | 0 mm | - | - | - |
| 1777911605 | 23.33° C | 36% | 1018.3 hPa | 0 mm | - | - | - |
| 1777911304 | 23.89° C | 34% | 1018.4 hPa | 0 mm | - | - | - |
| 1777911005 | 23.89° C | 33% | 1018.4 hPa | 0 mm | - | - | - |
| 1777910704 | 22.78° C | 35% | 1018.5 hPa | 0 mm | - | - | - |
| 1777910404 | 22.78° C | 34% | 1018.6 hPa | 0 mm | - | - | - |
| 1777910104 | 23.33° C | 33% | 1018.8 hPa | 0 mm | - | - | - |
| 1777909804 | 23.33° C | 35% | 1018.9 hPa | 0 mm | - | - | - |
| 1777909504 | 23.33° C | 36% | 1019 hPa | 0 mm | - | - | - |
| 1777909204 | 22.78° C | 36% | 1019 hPa | 0 mm | - | - | - |
| 1777908903 | 23.33° C | 37% | 1019 hPa | 0 mm | - | - | - |
| 1777908604 | 23.33° C | 38% | 1019.1 hPa | 0 mm | - | - | - |
| 1777908304 | 22.78° C | 36% | 1019.1 hPa | 0 mm | - | - | - |
| 1777908004 | 22.78° C | 38% | 1019.1 hPa | 0 mm | - | - | - |
| 1777907704 | 21.67° C | 42% | 1019 hPa | 0 mm | - | - | - |
| 1777907405 | 21.67° C | 42% | 1019.2 hPa | 0 mm | - | - | - |
| 1777907104 | 21.11° C | 40% | 1019.1 hPa | 0 mm | - | - | - |
| 1777906804 | 21.11° C | 41% | 1019.1 hPa | 0 mm | - | - | - |
| 1777906504 | 20.56° C | 40% | 1019.3 hPa | 0 mm | - | - | - |
| 1777906205 | 20° C | 44% | 1019.3 hPa | 0 mm | - | - | - |
| 1777905904 | 20° C | 42% | 1019.2 hPa | 0 mm | - | - | - |
| 1777905605 | 19.44° C | 42% | 1019.1 hPa | 0 mm | - | - | - |
| 1777905304 | 19.44° C | 51% | 1019.1 hPa | 0 mm | - | - | - |
* Rain latest hour (hover to see other rain measurements)
** Current wind speed in m/s (hover to see current wind gust speed)